| time (UTC) | temp C | wind direction | speed KPH | gust KPH | rain 1hr cm | rain 24hr cm | rain mn cm | humidity % | barometer mb |
| 20260504130204 | 23 | 72 | 4.8 | 6.4 | 0.00 | 0.00 | 0.00 | 63 | 1014.0 |
| 20260504120202 | 23 | 72 | 4.8 | 6.4 | 0.00 | 0.00 | 0.00 | 63 | 1014.0 |
| 20260504110159 | 23 | 72 | 4.8 | 6.4 | 0.00 | 0.00 | 0.00 | 63 | 1013.0 |
| 20260504100157 | 23 | 72 | 4.8 | 6.4 | 0.00 | 0.00 | 0.00 | 63 | 1013.0 |
| 20260504081153 | 23 | 72 | 4.8 | 6.4 | 0.00 | 0.00 | 0.00 | 63 | 1013.0 |
| 20260504080153 | 23 | 72 | 4.8 | 6.4 | 0.00 | 0.00 | 0.00 | 63 | 1013.0 |
| 20260504070150 | 23 | 72 | 4.8 | 6.4 | 0.00 | 0.00 | 0.00 | 63 | 1014.0 |
| 20260504060149 | 27 | 72 | 6.4 | 11.3 | 0.00 | 0.00 | 0.00 | 54 | 1014.0 |
| 20260504050147 | 27 | 72 | 6.4 | 11.3 | 0.00 | 0.00 | 0.00 | 54 | 1014.0 |
| 20260504045146 | 27 | 72 | 6.4 | 11.3 | 0.00 | 0.00 | 0.00 | 54 | 1014.0 |
| 20260504044146 | 27 | 72 | 6.4 | 11.3 | 0.00 | 0.00 | 0.00 | 54 | 1014.0 |
| 20260504043146 | 28 | 96 | 6.4 | 17.7 | 0.00 | 0.00 | 0.00 | 42 | 1014.0 |
| 20260504042145 | 28 | 96 | 6.4 | 17.7 | 0.00 | 0.00 | 0.00 | 42 | 1015.0 |
| 20260504041145 | 28 | 96 | 6.4 | 17.7 | 0.00 | 0.00 | 0.00 | 42 | 1015.0 |
| 20260504040145 | 28 | 96 | 6.4 | 17.7 | 0.00 | 0.00 | 0.00 | 42 | 1015.0 |
| 20260504035145 | 28 | 96 | 6.4 | 17.7 | 0.00 | 0.00 | 0.00 | 42 | 1015.0 |
| 20260504034144 | 28 | 96 | 6.4 | 17.7 | 0.00 | 0.00 | 0.00 | 42 | 1015.0 |
| 20260504033144 | 28 | 96 | 6.4 | 17.7 | 0.00 | 0.00 | 0.00 | 42 | 1014.0 |
| 20260504032144 | 28 | 96 | 6.4 | 17.7 | 0.00 | 0.00 | 0.00 | 42 | 1014.0 |
| 20260504031144 | 28 | 96 | 6.4 | 17.7 | 0.00 | 0.00 | 0.00 | 42 | 1014.0 |
| 20260504030143 | 28 | 96 | 6.4 | 17.7 | 0.00 | 0.00 | 0.00 | 42 | 1014.0 |
| 20260504025143 | 28 | 96 | 6.4 | 17.7 | 0.00 | 0.00 | 0.00 | 42 | 1014.0 |
| 20260504024143 | 28 | 96 | 6.4 | 17.7 | 0.00 | 0.00 | 0.00 | 42 | 1014.0 |
| 20260504023143 | 28 | 96 | 6.4 | 17.7 | 0.00 | 0.00 | 0.00 | 42 | 1014.0 |
| 20260504022142 | 28 | 96 | 6.4 | 17.7 | 0.00 | 0.00 | 0.00 | 42 | 1013.0 |
| 20260504021142 | 28 | 96 | 6.4 | 17.7 | 0.00 | 0.00 | 0.00 | 42 | 1013.0 |
| 20260504020141 | 28 | 96 | 6.4 | 17.7 | 0.00 | 0.00 | 0.00 | 42 | 1013.0 |
| 20260504015141 | 28 | 96 | 6.4 | 17.7 | 0.00 | 0.00 | 0.00 | 42 | 1013.0 |
| 20260504014141 | 28 | 96 | 6.4 | 17.7 | 0.00 | 0.00 | 0.00 | 42 | 1013.0 |
| 20260504013140 | 28 | 96 | 6.4 | 17.7 | 0.00 | 0.00 | 0.00 | 42 | 1012.0 |
| 20260504012140 | 28 | 96 | 6.4 | 17.7 | 0.00 | 0.00 | 0.00 | 42 | 1011.0 |
| 20260504011139 | 28 | 96 | 6.4 | 17.7 | 0.00 | 0.00 | 0.00 | 42 | 1011.0 |
| 20260504010139 | 28 | 96 | 6.4 | 17.7 | 0.00 | 0.00 | 0.00 | 42 | 1011.0 |
| 20260504005139 | 28 | 96 | 6.4 | 17.7 | 0.00 | 0.00 | 0.00 | 42 | 1011.0 |
| 20260504004138 | 28 | 96 | 6.4 | 17.7 | 0.00 | 0.00 | 0.00 | 42 | 1011.0 |
| 20260504003138 | 32 | 81 | 8.0 | 12.9 | 0.00 | 0.00 | 0.00 | 26 | 1011.0 |
| 20260504002138 | 32 | 81 | 8.0 | 12.9 | 0.00 | 0.00 | 0.00 | 26 | 1010.0 |
| 20260504001137 | 32 | 81 | 8.0 | 12.9 | 0.00 | 0.00 | 0.00 | 26 | 1010.0 |
| 20260504000137 | 32 | 81 | 8.0 | 12.9 | 0.00 | 0.00 | 0.00 | 26 | 1010.0 |
| 20260503235137 | 32 | 81 | 8.0 | 12.9 | 0.00 | 0.00 | 0.00 | 26 | 1010.0 |
| 20260503234137 | 32 | 81 | 8.0 | 12.9 | 0.00 | 0.00 | 0.00 | 26 | 1010.0 |
| 20260503233136 | 32 | 81 | 8.0 | 12.9 | 0.00 | 0.00 | 0.00 | 26 | 1010.0 |
| 20260503232136 | 32 | 81 | 8.0 | 12.9 | 0.00 | 0.00 | 0.00 | 26 | 1008.0 |
| 20260503231136 | 32 | 81 | 8.0 | 12.9 | 0.00 | 0.00 | 0.00 | 26 | 1008.0 |
| 20260503230135 | 32 | 81 | 8.0 | 12.9 | 0.00 | 0.00 | 0.00 | 26 | 1008.0 |
| 20260503225135 | 32 | 81 | 8.0 | 12.9 | 0.00 | 0.00 | 0.00 | 26 | 1008.0 |
| 20260503224135 | 32 | 81 | 8.0 | 12.9 | 0.00 | 0.00 | 0.00 | 26 | 1008.0 |
| 20260503223134 | 32 | 81 | 8.0 | 12.9 | 0.00 | 0.00 | 0.00 | 26 | 1008.0 |
| 20260503222134 | 32 | 81 | 8.0 | 12.9 | 0.00 | 0.00 | 0.00 | 26 | 1007.0 |
| 20260503221133 | 32 | 81 | 8.0 | 12.9 | 0.00 | 0.00 | 0.00 | 26 | 1007.0 |
| 20260503220133 | 32 | 81 | 8.0 | 12.9 | 0.00 | 0.00 | 0.00 | 26 | 1007.0 |
| 20260503215132 | 32 | 81 | 8.0 | 12.9 | 0.00 | 0.00 | 0.00 | 26 | 1007.0 |
| 20260503214132 | 32 | 81 | 8.0 | 12.9 | 0.00 | 0.00 | 0.00 | 26 | 1007.0 |
| 20260503213132 | 32 | 81 | 9.7 | 12.9 | 0.00 | 0.00 | 0.00 | 26 | 1007.0 |
| 20260503212132 | 32 | 79 | 9.7 | 11.3 | 0.00 | 0.00 | 0.00 | 28 | 1008.0 |
| 20260503211131 | 33 | 79 | 9.7 | 11.3 | 0.00 | 0.00 | 0.00 | 26 | 1008.0 |
| 20260503210131 | 33 | 79 | 9.7 | 11.3 | 0.00 | 0.00 | 0.00 | 26 | 1008.0 |
| 20260503205131 | 33 | 79 | 9.7 | 11.3 | 0.00 | 0.00 | 0.00 | 26 | 1008.0 |
| 20260503204131 | 33 | 79 | 9.7 | 11.3 | 0.00 | 0.00 | 0.00 | 27 | 1008.0 |
| 20260503203130 | 32 | 79 | 9.7 | 11.3 | 0.00 | 0.00 | 0.00 | 27 | 1008.0 |
| 20260503202130 | 32 | 90 | 11.3 | 11.3 | 0.00 | 0.00 | 0.00 | 30 | 1009.0 |
| 20260503201130 | 32 | 90 | 11.3 | 11.3 | 0.00 | 0.00 | 0.00 | 30 | 1009.0 |
| 20260503200129 | 32 | 90 | 11.3 | 11.3 | 0.00 | 0.00 | 0.00 | 28 | 1009.0 |
| 20260503195129 | 32 | 90 | 11.3 | 11.3 | 0.00 | 0.00 | 0.00 | 28 | 1009.0 |
| 20260503194129 | 32 | 90 | 11.3 | 11.3 | 0.00 | 0.00 | 0.00 | 28 | 1009.0 |
| 20260503193128 | 32 | 90 | 11.3 | 11.3 | 0.00 | 0.00 | 0.00 | 28 | 1009.0 |
| 20260503192128 | 31 | 90 | 11.3 | 11.3 | 0.00 | 0.00 | 0.00 | 32 | 1010.0 |
| 20260503191127 | 31 | 90 | 11.3 | 11.3 | 0.00 | 0.00 | 0.00 | 32 | 1010.0 |
| 20260503190127 | 31 | 90 | 11.3 | 11.3 | 0.00 | 0.00 | 0.00 | 31 | 1010.0 |
| 20260503185127 | 31 | 90 | 11.3 | 11.3 | 0.00 | 0.00 | 0.00 | 31 | 1010.0 |
| 20260503184127 | 31 | 90 | 11.3 | 11.3 | 0.00 | 0.00 | 0.00 | 32 | 1010.0 |
| 20260503183126 | 31 | 90 | 11.3 | 11.3 | 0.00 | 0.00 | 0.00 | 32 | 1010.0 |
| 20260503182125 | 31 | 87 | 11.3 | 14.5 | 0.00 | 0.00 | 0.00 | 36 | 1012.0 |
| 20260503181125 | 31 | 87 | 11.3 | 14.5 | 0.00 | 0.00 | 0.00 | 36 | 1012.0 |
| 20260503180125 | 31 | 87 | 11.3 | 14.5 | 0.00 | 0.00 | 0.00 | 34 | 1011.0 |
| 20260503175124 | 31 | 87 | 11.3 | 14.5 | 0.00 | 0.00 | 0.00 | 34 | 1011.0 |
| 20260503174124 | 30 | 87 | 11.3 | 14.5 | 0.00 | 0.00 | 0.00 | 36 | 1012.0 |
| 20260503173124 | 30 | 87 | 11.3 | 14.5 | 0.00 | 0.00 | 0.00 | 36 | 1012.0 |
| 20260503172123 | 30 | 78 | 8.0 | 16.1 | 0.00 | 0.00 | 0.00 | 41 | 1013.0 |
| 20260503171123 | 30 | 78 | 8.0 | 16.1 | 0.00 | 0.00 | 0.00 | 41 | 1013.0 |
| 20260503170122 | 30 | 78 | 8.0 | 16.1 | 0.00 | 0.00 | 0.00 | 41 | 1013.0 |
| 20260503160121 | 28 | 61 | 4.8 | 12.9 | 0.00 | 0.00 | 0.00 | 51 | 1014.0 |
| 20260503150119 | 27 | 54 | 4.8 | 8.0 | 0.00 | 0.00 | 0.00 | 61 | 1014.0 |
| 20260503140116 | 25 | 51 | 1.6 | 6.4 | 0.00 | 0.00 | 0.00 | 72 | 1014.0 |